Change the Weather History Date:

Friday, November 2, 2012

  Actual Average Record
Temperature  
Mean Temperature 26 °F -  
Max Temperature 34 °F 31 °F 44 °F (2002)
Min Temperature 19 °F 21 °F 3 °F (1999)
Degree Days  
Heating Degree Days 39    
Moisture  
Dew Point 11 °F    
Average Humidity 48    
Maximum Humidity 68    
Minimum Humidity 35    
Precipitation  
Precipitation 0.00 in - - ()
Snow  
Snow 0.00 in - - ()
Snow Depth 1.00 in    
Sea Level Pressure  
Sea Level Pressure 29.37 in    
Wind  
Wind Speed 6 mph (NNE)    
Max Wind Speed 12 mph    
Max Gust Speed -    
Visibility 10 miles    
Events      
Averages and records for this station are not official NWS values.
T = Trace of Precipitation, MM = Missing Value Source: NWS Daily Summary

Daily Weather History Graph

Daily Weather History Graph

Search for Another Location

Airport or City:

Trip Planner

Search our weather history database for the weather conditions in past years. The results will help you decide how hot, cold, wet, or windy it might be!

Date:

Astronomy

Nov. 02, 2012 Rise Set
Actual Time 9:31 AM AKDT 5:53 PM AKDT
Civil Twilight 8:44 AM AKDT 6:40 PM AKDT
Nautical Twilight 7:52 AM AKDT 7:32 PM AKDT
Astronomical Twilight 7:02 AM AKDT 8:22 PM AKDT
Moon 8:09 PM AKDT (11/2) 1:41 PM AKDT (11/2)
Length of Visible Light 9h 56m
Length of Day
8h 21m
Waning Gibbous, 86% of the Moon is Illuminated
Nov 2
Waning Gibbous
Nov 6
Last Quarter
Nov 13
New
Nov 20
First Quarter
Nov 28
Full

Hourly Weather History & Observations

Time (AKDT) Temp. Windchill Dew Point Humidity Pressure Visibility Wind Dir Wind Speed Gust Speed Precip Events Conditions
12:53 AM 26.1 °F 18.4 °F 8.1 °F 47% 29.64 in 10.0 mi North 6.9 mph - N/A   Partly Cloudy
1:53 AM 26.1 °F 15.6 °F 7.0 °F 44% 29.60 in 10.0 mi North 11.5 mph - N/A   Partly Cloudy
2:53 AM 25.0 °F 16.3 °F 7.0 °F 46% 29.57 in 10.0 mi North 8.1 mph - N/A   Scattered Clouds
3:53 AM 25.0 °F 15.5 °F 7.0 °F 46% 29.52 in 10.0 mi North 9.2 mph - N/A   Mostly Cloudy
4:53 AM 25.0 °F 20.7 °F 8.1 °F 49% 29.50 in 10.0 mi North 3.5 mph - N/A   Mostly Cloudy
5:53 AM 26.1 °F 19.4 °F 7.0 °F 44% 29.46 in 10.0 mi North 5.8 mph - N/A   Scattered Clouds
6:53 AM 21.0 °F - 10.0 °F 63% 29.44 in 10.0 mi Calm Calm - N/A   Scattered Clouds
7:53 AM 19.9 °F 13.4 °F 10.9 °F 68% 29.41 in 10.0 mi East 4.6 mph - N/A   Clear
8:53 AM 27.0 °F 19.5 °F 10.9 °F 51% 29.37 in 10.0 mi NNE 6.9 mph - N/A   Scattered Clouds
9:53 AM 24.1 °F 18.2 °F 12.0 °F 60% 29.35 in 10.0 mi East 4.6 mph - N/A   Overcast
10:53 AM 30.9 °F 25.2 °F 10.0 °F 42% 29.32 in 10.0 mi North 5.8 mph - N/A   Overcast
11:53 AM 30.9 °F 22.8 °F 7.0 °F 37% 29.30 in 10.0 mi North 9.2 mph - N/A   Overcast
12:53 PM 32.0 °F 27.5 °F 7.0 °F 35% 29.29 in 10.0 mi North 4.6 mph - N/A   Overcast
1:53 PM 30.9 °F 22.8 °F 12.0 °F 46% 29.26 in 10.0 mi NE 9.2 mph - N/A   Overcast
2:53 PM 32.0 °F 26.4 °F 9.0 °F 38% 29.25 in 10.0 mi North 5.8 mph - N/A   Overcast
3:53 PM 33.1 °F 26.9 °F 10.0 °F 38% 29.24 in 10.0 mi North 6.9 mph - N/A   Mostly Cloudy
4:53 PM 33.1 °F 30.0 °F 12.0 °F 42% 29.27 in 10.0 mi North 3.5 mph - N/A   Overcast
5:53 PM 33.1 °F 28.7 °F 12.9 °F 43% 29.28 in 10.0 mi NE 4.6 mph - N/A   Mostly Cloudy
6:53 PM 28.9 °F - 12.9 °F 51% 29.31 in 10.0 mi Calm Calm - N/A   Clear
7:53 PM 30.0 °F - 15.1 °F 54% 29.31 in 10.0 mi Calm Calm - N/A   Clear
8:53 PM 28.9 °F - 16.0 °F 58% 29.32 in 10.0 mi Calm Calm - N/A   Clear
9:53 PM 28.9 °F - 16.0 °F 58% 29.33 in 10.0 mi Calm Calm - N/A   Partly Cloudy
10:53 PM 30.0 °F 21.7 °F 12.0 °F 47% 29.32 in 10.0 mi North 9.2 mph - N/A   Partly Cloudy
11:53 PM 30.0 °F 24.1 °F 14.0 °F 51% 29.34 in 10.0 mi North 5.8 mph - N/A   Partly Cloudy